User: anonymous   Login
Location: *
(37.5724°S, 58.0067°E)
Time: 14:37:44
(UTC+00:00)
Language:

OAO 2 Rocket - Orbit

View from above orbital plane
View from above orbital plane
View from above satellite
View from above satellite

Ground track
Ground track

The orbit data is extracted from the following two-line orbital elements,

1 03598U 68110B   21173.83675594  .00000048  00000-0  15421-4 0  9991
2 03598  34.9949 333.7807 0049994 247.2777 112.2627 14.54535238759212
Epoch (UTC): 22 June 2021 20:04:55
Eccentricity: 0.0049994
inclination: 34.9949°
perigee height: 675 km
apogee height: 746 km
right ascension of ascending node: 333.7807°
argument of perigee: 247.2777°
revolutions per day: 14.54535238
mean anomaly at epoch: 112.2627°
orbit number at epoch: 75921

The dashed part of the orbit path shows where the satellite is in the earth's shadow,  

DLR